[TLELIST] Archives

 

[TLELIST] Current TLEs

June 28th 2024 PDT

HST 1 20580U 90037B 24179.57485692 .00006796 00000-0 31685-3 0 9997 2 20580 28.4684 275.5304 0002910 140.8899 219.1904 15.17879797678611 ISS (ZARYA) 1 25544U 98067A 24180.37742367 .00016634 00000-0 29995-3 0 9991 2 25544 51.6409 259.8610 0011178 16.1836 107.9356 15.49837815460283 CXO 1 25867U 99040B 24181.08524550 .00000400 00000-0 00000-0 0 9999 2 25867 41.3705 152.8194 8880550 297.1092 0.3691 0.37810062 14601 ...Continue Reading

[TLELIST] Current TLEs

June 27th 2024 PDT

HST 1 20580U 90037B 24178.52285128 .00006517 00000-0 30362-3 0 9995 2 20580 28.4686 282.5791 0003042 132.8692 227.2156 15.17865774678451 ISS (ZARYA) 1 25544U 98067A 24179.46866125 .00012319 00000-0 22477-3 0 9992 2 25544 51.6390 264.3692 0010862 14.2939 76.1523 15.49790923460141 CXO 1 25867U 99040B 24181.08524550 .00000400 00000-0 00000-0 0 9999 2 25867 41.3705 152.8194 8880550 297.1092 0.3691 0.37810062 14601 ...Continue Reading

[TLELIST] Current TLEs

June 26th 2024 PDT

HST 1 20580U 90037B 24177.53658779 .00005790 00000-0 26880-3 0 9993 2 20580 28.4690 289.1884 0003039 123.2051 236.8833 15.17852498678302 ISS (ZARYA) 1 25544U 98067A 24178.37735149 .00017170 00000-0 31009-3 0 9993 2 25544 51.6417 269.7651 0010892 9.6109 108.1524 15.49770781459971 CXO 1 25867U 99040B 24178.44049557 .00000550 00000-0 00000+0 0 9999 2 25867 41.3050 153.0818 8879926 296.9350 0.2825 0.37804308 25751 ...Continue Reading

[TLELIST] Current TLEs

June 26th 2024 PDT

HST 1 20580U 90037B 24177.53658779 .00005790 00000-0 26880-3 0 9993 2 20580 28.4690 289.1884 0003039 123.2051 236.8833 15.17852498678302 ISS (ZARYA) 1 25544U 98067A 24178.37735149 .00017170 00000-0 31009-3 0 9993 2 25544 51.6417 269.7651 0010892 9.6109 108.1524 15.49770781459971 CXO 1 25867U 99040B 24178.44049557 .00000550 00000-0 00000+0 0 9999 2 25867 41.3050 153.0818 8879926 296.9350 0.2825 0.37804308 25751 ...Continue Reading

[TLELIST] Current TLEs

June 25th 2024 PDT

HST 1 20580U 90037B 24176.74757107 .00005697 00000-0 26442-3 0 9990 2 20580 28.4691 294.4758 0003061 115.1997 244.8913 15.17843407678180 ISS (ZARYA) 1 25544U 98067A 24177.34539975 .00017302 00000-0 31280-3 0 9996 2 25544 51.6415 274.8764 0010849 5.5800 111.0109 15.49735112459810 CXO 1 25867U 99040B 24178.44049557 .00000550 00000-0 00000+0 0 9999 2 25867 41.3050 153.0818 8879926 296.9350 0.2825 0.37804308 25751 ...Continue Reading

[TLELIST] Current TLEs

June 24th 2024 PDT

HST 1 20580U 90037B 24175.69554143 .00005514 00000-0 25572-3 0 9999 2 20580 28.4695 301.5256 0003043 103.4081 256.6851 15.17831856678021 ISS (ZARYA) 1 25544U 98067A 24176.37742947 .00017246 00000-0 31221-3 0 9995 2 25544 51.6415 279.6692 0010792 1.9083 110.8234 15.49700375459665 CXO 1 25867U 99040B 24178.44049557 .00000550 00000-0 00000+0 0 9999 2 25867 41.3050 153.0818 8879926 296.9350 0.2825 0.37804308 25751 ...Continue Reading

[TLELIST] Current TLEs

June 23rd 2024 PDT

HST 1 20580U 90037B 24174.70925583 .00005644 00000-0 26204-3 0 9997 2 20580 28.4697 308.1340 0003069 94.1973 265.8970 15.17822199677870 ISS (ZARYA) 1 25544U 98067A 24175.34345280 .00017317 00000-0 31385-3 0 9990 2 25544 51.6413 284.7894 0010768 358.4244 102.0929 15.49664313459504 CXO 1 25867U 99040B 24175.79403216 .00000586 00000-0 00000-0 0 9990 2 25867 41.2536 153.2856 8882056 296.8165 359.9064 0.37806112 14598 ...Continue Reading

[TLELIST] Current TLEs

June 23rd 2024 PDT

HST 1 20580U 90037B 24174.70925583 .00005644 00000-0 26204-3 0 9997 2 20580 28.4697 308.1340 0003069 94.1973 265.8970 15.17822199677870 ISS (ZARYA) 1 25544U 98067A 24175.34345280 .00017317 00000-0 31385-3 0 9990 2 25544 51.6413 284.7894 0010768 358.4244 102.0929 15.49664313459504 CXO 1 25867U 99040B 24175.79403216 .00000586 00000-0 00000-0 0 9990 2 25867 41.2536 153.2856 8882056 296.8165 359.9064 0.37806112 14598 ...Continue Reading

[TLELIST] Current TLEs

June 22nd 2024 PDT

HST 1 20580U 90037B 24173.65721054 .00005665 00000-0 26314-3 0 9992 2 20580 28.4697 315.1828 0003085 84.0999 275.9945 15.17811349677715 ISS (ZARYA) 1 25544U 98067A 24174.17682994 .00016833 00000-0 30580-3 0 9994 2 25544 51.6405 290.5652 0010735 353.6910 74.2634 15.49620785459321 CXO 1 25867U 99040B 24170.50726066 .00000476 00000-0 00000-0 0 9993 2 25867 41.1565 153.6982 8888262 296.5484 0.0134 0.37811706 14563 ...Continue Reading

[TLELIST] Current TLEs

June 21st 2024 PDT

HST 1 20580U 90037B 24173.06543191 .00005484 00000-0 25449-3 0 9998 2 20580 28.4698 319.1479 0003098 78.7776 281.3164 15.17804489677888 ISS (ZARYA) 1 25544U 98067A 24173.41035641 -.00101179 00000-0 -18119-2 0 9994 2 25544 51.6399 294.3683 0010427 351.1491 118.1351 15.49552914459203 CXO 1 25867U 99040B 24170.50726066 .00000476 00000-0 00000-0 0 9993 2 25867 41.1565 153.6982 8888262 296.5484 0.0134 0.37811706 14563 ...Continue Reading
  • This mailing list is a public mailing list - anyone may join or leave, at any time.
  • This mailing list is announce-only.

International Space Station (ISS) / Hubble Space Telescope (HST) / Chandra X-Ray Observatory Orbital Data via EMAIL

Privacy Policy:

Private list